Precipitable_Water
1.28 1.26 1.25 1.22 1.21 1.17 1.12 1.08 1.09 1.09 1.07 1.04 1.00 0.96 0.93 0.91 0.89 0.84 0.81 0.75 0.72 0.69 0.67 0.67 0.66 0.65 0.63 0.60 0.58 0.55 0.53 0.51 0.50 0.46 0.42 0.40 0.39 0.38 0.37 0.37 0.36 0.37 0.37 0.37 0.38 0.37 0.35 0.34 0.34 0.34 0.34 0.32 0.32 0.33 0.33 0.33 0.34 0.33 0.34 0.33 0.32 0.34 0.33 0.30 0.26 0.24 0.27 0.33 0.33 0.33 0.35 0.36 0.34 0.37 0.35 0.36 0.37 0.40 0.42 0.42 0.42 0.41 0.40 0.40 0.39
1.23 1.22 1.21 1.18 1.15 1.13 1.08 1.07 1.08 1.07 1.03 1.01 0.96 0.94 0.92 0.90 0.86 0.81 0.77 0.74 0.71 0.67 0.66 0.67 0.66 0.65 0.62 0.60 0.58 0.56 0.54 0.51 0.47 0.43 0.40 0.38 0.37 0.37 0.36 0.36 0.36 0.36 0.36 0.35 0.36 0.36 0.35 0.33 0.32 0.32 0.33 0.32 0.32 0.31 0.32 0.32 0.32 0.31 0.32 0.32 0.31 0.31 0.34 0.30 0.27 0.26 0.22 0.27 0.28 0.32 0.33 0.36 0.32 0.37 0.36 0.36 0.37 0.39 0.40 0.42 0.44 0.44 0.43 0.42 0.41
1.22 1.21 1.16 1.12 1.10 1.08 1.04 1.04 1.06 1.04 1.00 0.97 0.94 0.93 0.92 0.89 0.84 0.78 0.75 0.72 0.70 0.67 0.66 0.66 0.65 0.64 0.62 0.61 0.59 0.56 0.52 0.48 0.44 0.41 0.39 0.37 0.36 0.36 0.37 0.37 0.36 0.35 0.35 0.35 0.34 0.35 0.33 0.32 0.31 0.31 0.31 0.30 0.30 0.30 0.31 0.31 0.31 0.30 0.30 0.31 0.29 0.30 0.31 0.32 0.29 0.25 0.24 0.24 0.29 0.29 0.31 0.33 0.34 0.35 0.38 0.40 0.41 0.43 0.41 0.42 0.43 0.45 0.46 0.45 0.43
1.19 1.17 1.13 1.09 1.06 1.02 1.00 1.03 1.03 1.01 0.97 0.95 0.93 0.92 0.90 0.85 0.81 0.77 0.74 0.71 0.67 0.66 0.66 0.66 0.66 0.65 0.63 0.61 0.57 0.53 0.49 0.45 0.42 0.40 0.39 0.37 0.36 0.36 0.37 0.37 0.37 0.36 0.35 0.34 0.34 0.33 0.31 0.29 0.28 0.29 0.28 0.27 0.27 0.27 0.29 0.29 0.29 0.29 0.28 0.29 0.29 0.28 0.29 0.30 0.30 0.28 0.27 0.24 0.26 0.29 0.32 0.32 0.34 0.37 0.39 0.41 0.42 0.42 0.44 0.45 0.47 0.46 0.46 0.46 0.46
1.16 1.13 1.09 1.03 1.00 0.99 1.00 1.02 1.00 0.97 0.94 0.92 0.90 0.88 0.86 0.82 0.79 0.75 0.71 0.67 0.64 0.65 0.67 0.69 0.68 0.65 0.60 0.56 0.53 0.49 0.45 0.42 0.39 0.39 0.39 0.38 0.38 0.37 0.37 0.37 0.36 0.36 0.35 0.35 0.35 0.33 0.30 0.28 0.28 0.28 0.27 0.25 0.25 0.25 0.26 0.26 0.27 0.27 0.26 0.27 0.27 0.27 0.28 0.28 0.28 0.29 0.27 0.25 0.26 0.30 0.32 0.33 0.36 0.38 0.40 0.39 0.40 0.43 0.45 0.45 0.46 0.46 0.46 0.48 0.48
1.14 1.11 1.08 1.05 1.03 1.01 1.00 0.99 0.96 0.93 0.90 0.88 0.86 0.84 0.82 0.79 0.76 0.73 0.69 0.64 0.65 0.68 0.69 0.69 0.65 0.60 0.57 0.54 0.50 0.44 0.42 0.40 0.39 0.38 0.38 0.38 0.38 0.38 0.37 0.37 0.36 0.36 0.36 0.35 0.34 0.33 0.30 0.29 0.29 0.28 0.27 0.25 0.24 0.25 0.25 0.25 0.25 0.25 0.25 0.25 0.25 0.26 0.26 0.26 0.27 0.27 0.27 0.27 0.27 0.26 0.30 0.31 0.31 0.35 0.39 0.41 0.41 0.40 0.42 0.44 0.48 0.49 0.48 0.46 0.49
1.13 1.11 1.10 1.07 1.04 1.02 1.00 0.98 0.95 0.91 0.88 0.86 0.84 0.82 0.80 0.78 0.75 0.71 0.69 0.66 0.68 0.69 0.68 0.65 0.63 0.59 0.56 0.51 0.45 0.42 0.40 0.39 0.38 0.38 0.38 0.38 0.38 0.37 0.37 0.37 0.36 0.36 0.35 0.33 0.31 0.30 0.29 0.28 0.28 0.28 0.27 0.27 0.25 0.24 0.24 0.24 0.24 0.24 0.25 0.24 0.25 0.25 0.24 0.25 0.26 0.25 0.26 0.26 0.26 0.28 0.28 0.31 0.34 0.32 0.37 0.43 0.45 0.46 0.43 0.42 0.42 0.49 0.51 0.50 0.48
1.12 1.10 1.07 1.03 1.00 0.99 0.98 0.97 0.94 0.91 0.89 0.86 0.83 0.82 0.80 0.78 0.75 0.72 0.69 0.67 0.67 0.66 0.65 0.63 0.60 0.56 0.52 0.47 0.43 0.42 0.40 0.38 0.37 0.37 0.38 0.39 0.38 0.37 0.37 0.35 0.35 0.34 0.32 0.30 0.29 0.28 0.27 0.27 0.27 0.27 0.27 0.27 0.26 0.25 0.24 0.23 0.24 0.23 0.25 0.25 0.24 0.24 0.23 0.24 0.24 0.24 0.24 0.24 0.25 0.25 0.27 0.29 0.31 0.35 0.39 0.41 0.41 0.43 0.48 0.47 0.44 0.45 0.47 0.51 0.53
1.10 1.07 1.02 0.97 0.95 0.96 0.96 0.95 0.94 0.92 0.90 0.88 0.85 0.83 0.81 0.77 0.74 0.70 0.67 0.66 0.66 0.65 0.64 0.59 0.55 0.52 0.49 0.45 0.42 0.41 0.39 0.38 0.38 0.38 0.38 0.38 0.38 0.36 0.36 0.35 0.33 0.30 0.28 0.27 0.27 0.26 0.26 0.26 0.26 0.27 0.26 0.25 0.25 0.25 0.25 0.25 0.24 0.23 0.24 0.25 0.24 0.24 0.23 0.23 0.23 0.23 0.23 0.24 0.23 0.26 0.26 0.27 0.29 0.31 0.33 0.37 0.39 0.42 0.48 0.51 0.49 0.51 0.51 0.50 0.53
1.06 1.00 0.96 0.94 0.96 0.98 0.98 0.98 0.96 0.95 0.91 0.87 0.85 0.82 0.79 0.75 0.70 0.67 0.65 0.64 0.63 0.62 0.59 0.56 0.53 0.49 0.45 0.42 0.41 0.40 0.39 0.40 0.40 0.40 0.39 0.37 0.36 0.36 0.35 0.33 0.30 0.27 0.25 0.24 0.24 0.25 0.25 0.25 0.25 0.25 0.24 0.24 0.24 0.23 0.23 0.23 0.25 0.26 0.26 0.25 0.25 0.24 0.23 0.22 0.22 0.23 0.23 0.22 0.23 0.24 0.23 0.25 0.28 0.31 0.34 0.39 0.46 0.50 0.51 0.51 0.49 0.51 0.51 0.50 0.53
1.02 0.98 0.95 0.96 0.97 0.98 0.96 0.94 0.94 0.92 0.89 0.86 0.83 0.80 0.76 0.71 0.67 0.65 0.63 0.62 0.59 0.58 0.56 0.53 0.50 0.48 0.44 0.41 0.39 0.39 0.39 0.41 0.41 0.40 0.39 0.38 0.36 0.34 0.31 0.29 0.27 0.25 0.24 0.23 0.23 0.23 0.24 0.24 0.23 0.23 0.23 0.23 0.22 0.22 0.22 0.22 0.22 0.24 0.25 0.25 0.25 0.25 0.23 0.22 0.22 0.23 0.22 0.22 0.23 0.24 0.24 0.25 0.28 0.32 0.36 0.41 0.47 0.50 0.51 0.53 0.52 0.51 0.49 0.47 0.43
1.00 0.97 0.96 0.97 0.97 0.95 0.92 0.91 0.91 0.90 0.88 0.85 0.82 0.79 0.74 0.68 0.64 0.62 0.60 0.58 0.56 0.55 0.52 0.50 0.48 0.46 0.44 0.41 0.39 0.39 0.40 0.42 0.41 0.39 0.39 0.38 0.35 0.31 0.28 0.26 0.24 0.24 0.24 0.23 0.23 0.23 0.22 0.22 0.22 0.22 0.22 0.22 0.21 0.20 0.20 0.20 0.21 0.22 0.23 0.23 0.23 0.24 0.25 0.24 0.23 0.22 0.23 0.22 0.22 0.23 0.24 0.25 0.28 0.32 0.35 0.40 0.45 0.50 0.53 0.55 0.53 0.52 0.51 0.50 0.50
1.00 0.97 0.96 0.97 0.97 0.95 0.92 0.90 0.90 0.89 0.86 0.85 0.82 0.77 0.70 0.65 0.62 0.59 0.57 0.56 0.54 0.51 0.49 0.47 0.46 0.45 0.42 0.39 0.39 0.41 0.42 0.42 0.40 0.40 0.39 0.36 0.33 0.29 0.26 0.25 0.23 0.23 0.23 0.23 0.23 0.23 0.22 0.21 0.20 0.20 0.21 0.21 0.20 0.19 0.18 0.18 0.20 0.21 0.21 0.21 0.22 0.23 0.23 0.24 0.25 0.26 0.26 0.24 0.23 0.23 0.25 0.27 0.28 0.32 0.37 0.42 0.49 0.50 0.53 0.53 0.54 0.55 0.55 0.54 0.54
1.00 0.98 0.97 0.96 0.96 0.95 0.94 0.93 0.91 0.90 0.88 0.84 0.79 0.72 0.67 0.62 0.59 0.57 0.55 0.53 0.50 0.48 0.47 0.45 0.44 0.42 0.40 0.39 0.40 0.42 0.41 0.42 0.41 0.40 0.37 0.34 0.31 0.28 0.26 0.24 0.24 0.24 0.23 0.23 0.23 0.23 0.22 0.21 0.20 0.19 0.20 0.19 0.19 0.17 0.17 0.18 0.18 0.18 0.19 0.19 0.20 0.21 0.22 0.23 0.24 0.25 0.26 0.25 0.24 0.23 0.27 0.30 0.30 0.33 0.39 0.45 0.48 0.50 0.53 0.54 0.56 0.56 0.57 0.57 0.59
1.00 0.99 0.97 0.96 0.94 0.94 0.94 0.95 0.94 0.91 0.87 0.82 0.76 0.70 0.66 0.60 0.56 0.54 0.52 0.50 0.47 0.45 0.44 0.42 0.42 0.41 0.40 0.42 0.42 0.42 0.42 0.42 0.40 0.38 0.35 0.33 0.30 0.28 0.26 0.25 0.24 0.23 0.24 0.24 0.24 0.23 0.22 0.22 0.21 0.19 0.19 0.18 0.18 0.17 0.17 0.17 0.17 0.17 0.17 0.18 0.19 0.20 0.21 0.22 0.23 0.24 0.25 0.25 0.25 0.26 0.27 0.29 0.32 0.35 0.38 0.44 0.50 0.56 0.60 0.60 0.61 0.60 0.62 0.64 0.61
1.01 1.00 0.97 0.95 0.93 0.93 0.94 0.94 0.92 0.90 0.85 0.80 0.75 0.70 0.64 0.57 0.52 0.51 0.50 0.48 0.47 0.45 0.43 0.42 0.40 0.40 0.42 0.43 0.41 0.40 0.40 0.40 0.38 0.36 0.34 0.32 0.31 0.28 0.25 0.23 0.23 0.23 0.23 0.24 0.24 0.23 0.22 0.22 0.21 0.18 0.18 0.18 0.17 0.17 0.17 0.17 0.16 0.16 0.16 0.17 0.18 0.19 0.20 0.23 0.24 0.25 0.25 0.25 0.26 0.26 0.27 0.29 0.31 0.34 0.37 0.42 0.47 0.56 0.62 0.66 0.66 0.63 0.61 0.57 0.53
1.01 1.01 0.99 0.97 0.95 0.94 0.95 0.92 0.91 0.88 0.84 0.79 0.76 0.70 0.63 0.56 0.52 0.50 0.47 0.45 0.43 0.41 0.40 0.40 0.40 0.42 0.43 0.42 0.39 0.37 0.36 0.37 0.36 0.35 0.33 0.32 0.30 0.27 0.25 0.23 0.22 0.22 0.22 0.23 0.22 0.21 0.21 0.22 0.21 0.18 0.17 0.17 0.17 0.16 0.16 0.16 0.15 0.15 0.16 0.16 0.17 0.18 0.19 0.21 0.23 0.24 0.24 0.24 0.24 0.25 0.26 0.27 0.28 0.31 0.35 0.39 0.44 0.52 0.58 0.59 0.59 0.60 0.57 0.52 0.53
0.99 1.00 0.97 0.97 0.98 0.96 0.94 0.91 0.88 0.87 0.83 0.80 0.76 0.69 0.62 0.57 0.50 0.48 0.44 0.41 0.40 0.39 0.39 0.40 0.42 0.43 0.41 0.39 0.37 0.34 0.34 0.35 0.35 0.34 0.32 0.31 0.29 0.26 0.24 0.21 0.21 0.21 0.21 0.21 0.21 0.20 0.20 0.21 0.21 0.19 0.17 0.17 0.17 0.16 0.15 0.16 0.15 0.16 0.16 0.16 0.16 0.16 0.18 0.20 0.21 0.22 0.23 0.23 0.23 0.23 0.25 0.25 0.26 0.28 0.32 0.36 0.40 0.47 0.52 0.54 0.61 0.61 0.57 0.56 0.51
0.97 0.95 0.97 1.00 1.01 0.99 0.95 0.94 0.90 0.86 0.83 0.80 0.75 0.66 0.60 0.54 0.50 0.47 0.44 0.41 0.38 0.38 0.39 0.40 0.41 0.41 0.40 0.38 0.37 0.34 0.32 0.33 0.33 0.32 0.31 0.29 0.27 0.25 0.23 0.22 0.20 0.19 0.20 0.19 0.20 0.19 0.18 0.19 0.20 0.20 0.18 0.18 0.17 0.16 0.16 0.16 0.15 0.16 0.17 0.16 0.16 0.16 0.18 0.21 0.21 0.20 0.20 0.20 0.21 0.22 0.22 0.24 0.25 0.26 0.28 0.32 0.36 0.42 0.50 0.57 0.64 0.61 0.57 0.56 0.55
1.00 1.02 1.02 1.01 1.00 0.99 0.95 0.94 0.92 0.89 0.84 0.80 0.72 0.65 0.61 0.56 0.49 0.44 0.41 0.38 0.36 0.38 0.39 0.40 0.38 0.38 0.37 0.35 0.34 0.33 0.32 0.32 0.32 0.31 0.30 0.28 0.27 0.25 0.23 0.21 0.18 0.18 0.19 0.19 0.18 0.18 0.18 0.18 0.19 0.19 0.19 0.18 0.17 0.17 0.16 0.16 0.16 0.17 0.17 0.17 0.16 0.16 0.20 0.20 0.21 0.22 0.21 0.21 0.21 0.21 0.22 0.23 0.23 0.24 0.25 0.27 0.32 0.37 0.44 0.53 0.61 0.64 0.61 0.59 0.57
1.00 0.99 0.99 0.98 0.96 0.94 0.91 0.86 0.87 0.87 0.85 0.77 0.70 0.65 0.61 0.54 0.47 0.40 0.36 0.36 0.36 0.37 0.38 0.38 0.36 0.34 0.33 0.32 0.32 0.31 0.31 0.29 0.30 0.30 0.29 0.27 0.26 0.24 0.23 0.21 0.19 0.19 0.18 0.18 0.18 0.17 0.17 0.18 0.19 0.20 0.19 0.18 0.17 0.17 0.16 0.16 0.17 0.17 0.18 0.18 0.19 0.20 0.21 0.20 0.20 0.21 0.21 0.21 0.21 0.21 0.21 0.21 0.22 0.22 0.23 0.24 0.27 0.33 0.39 0.46 0.56 0.64 0.64 0.61 0.58
0.98 0.97 0.97 0.94 0.91 0.88 0.83 0.82 0.87 0.83 0.81 0.77 0.69 0.63 0.60 0.54 0.44 0.37 0.35 0.34 0.34 0.35 0.35 0.33 0.31 0.29 0.28 0.28 0.27 0.26 0.27 0.27 0.25 0.26 0.26 0.25 0.25 0.25 0.22 0.20 0.21 0.19 0.18 0.18 0.18 0.18 0.18 0.19 0.19 0.20 0.20 0.19 0.18 0.17 0.17 0.16 0.17 0.17 0.18 0.19 0.20 0.20 0.20 0.20 0.21 0.21 0.21 0.21 0.20 0.20 0.20 0.20 0.20 0.21 0.22 0.23 0.25 0.30 0.35 0.40 0.49 0.58 0.66 0.67 0.64
0.98 0.97 0.94 0.89 0.86 0.84 0.82 0.81 0.78 0.80 0.77 0.71 0.64 0.58 0.55 0.51 0.43 0.37 0.35 0.35 0.35 0.34 0.32 0.30 0.27 0.26 0.26 0.26 0.25 0.25 0.24 0.24 0.24 0.23 0.23 0.23 0.23 0.23 0.22 0.21 0.21 0.21 0.19 0.18 0.18 0.18 0.20 0.20 0.20 0.21 0.20 0.19 0.18 0.17 0.16 0.16 0.17 0.17 0.18 0.18 0.19 0.19 0.20 0.19 0.20 0.20 0.20 0.20 0.20 0.19 0.19 0.20 0.20 0.20 0.21 0.22 0.24 0.27 0.31 0.37 0.42 0.49 0.57 0.65 0.69
0.97 0.94 0.89 0.86 0.84 0.82 0.81 0.78 0.77 0.75 0.72 0.67 0.61 0.55 0.50 0.46 0.43 0.38 0.36 0.37 0.35 0.33 0.31 0.29 0.27 0.25 0.23 0.23 0.24 0.23 0.23 0.23 0.22 0.22 0.22 0.22 0.22 0.21 0.21 0.20 0.21 0.21 0.21 0.20 0.20 0.20 0.20 0.20 0.21 0.21 0.20 0.19 0.18 0.17 0.16 0.16 0.16 0.17 0.17 0.18 0.18 0.19 0.19 0.19 0.18 0.19 0.19 0.19 0.19 0.20 0.20 0.20 0.21 0.21 0.21 0.23 0.24 0.25 0.27 0.32 0.36 0.42 0.48 0.55 0.61
0.92 0.89 0.87 0.84 0.82 0.81 0.79 0.78 0.76 0.71 0.68 0.63 0.55 0.50 0.45 0.43 0.42 0.40 0.38 0.38 0.35 0.32 0.29 0.28 0.25 0.24 0.23 0.21 0.21 0.21 0.22 0.21 0.21 0.21 0.21 0.22 0.21 0.21 0.21 0.20 0.21 0.21 0.20 0.21 0.22 0.22 0.22 0.22 0.22 0.21 0.20 0.19 0.18 0.17 0.16 0.16 0.17 0.17 0.18 0.18 0.18 0.19 0.19 0.19 0.18 0.18 0.17 0.18 0.19 0.20 0.20 0.21 0.21 0.22 0.23 0.23 0.24 0.24 0.23 0.25 0.29 0.34 0.40 0.45 0.51
0.89 0.87 0.84 0.82 0.81 0.80 0.77 0.76 0.73 0.67 0.63 0.59 0.51 0.45 0.41 0.41 0.41 0.40 0.40 0.38 0.34 0.30 0.28 0.27 0.25 0.23 0.22 0.21 0.20 0.20 0.20 0.20 0.19 0.20 0.21 0.21 0.20 0.20 0.20 0.21 0.21 0.22 0.22 0.22 0.22 0.22 0.22 0.22 0.21 0.20 0.20 0.19 0.18 0.17 0.17 0.17 0.18 0.18 0.18 0.19 0.19 0.19 0.19 0.19 0.18 0.18 0.17 0.18 0.18 0.19 0.20 0.22 0.22 0.22 0.23 0.23 0.22 0.22 0.23 0.23 0.24 0.26 0.31 0.35 0.39
0.88 0.85 0.82 0.81 0.80 0.78 0.75 0.72 0.68 0.64 0.60 0.55 0.48 0.42 0.40 0.40 0.40 0.40 0.39 0.35 0.32 0.30 0.29 0.27 0.25 0.24 0.22 0.21 0.21 0.21 0.19 0.18 0.18 0.19 0.20 0.19 0.19 0.20 0.20 0.21 0.22 0.22 0.22 0.22 0.22 0.22 0.22 0.21 0.20 0.20 0.20 0.20 0.19 0.19 0.19 0.19 0.18 0.18 0.18 0.19 0.19 0.19 0.19 0.19 0.19 0.18 0.18 0.18 0.18 0.19 0.20 0.22 0.24 0.23 0.21 0.21 0.21 0.22 0.24 0.23 0.23 0.24 0.27 0.29 0.31
0.86 0.82 0.80 0.80 0.78 0.75 0.72 0.69 0.65 0.60 0.56 0.51 0.43 0.39 0.40 0.42 0.41 0.39 0.36 0.33 0.30 0.30 0.29 0.28 0.26 0.24 0.22 0.22 0.22 0.20 0.18 0.16 0.17 0.17 0.18 0.18 0.18 0.19 0.20 0.20 0.20 0.21 0.21 0.21 0.22 0.22 0.21 0.21 0.20 0.20 0.19 0.19 0.18 0.18 0.18 0.19 0.19 0.18 0.19 0.19 0.19 0.19 0.20 0.20 0.20 0.20 0.20 0.20 0.19 0.19 0.19 0.20 0.21 0.22 0.22 0.21 0.21 0.22 0.24 0.24 0.23 0.23 0.24 0.25 0.23
0.85 0.81 0.80 0.78 0.75 0.74 0.71 0.68 0.64 0.58 0.52 0.48 0.46 0.45 0.46 0.47 0.44 0.39 0.39 0.37 0.34 0.31 0.30 0.29 0.28 0.27 0.25 0.24 0.21 0.19 0.17 0.15 0.15 0.18 0.19 0.19 0.18 0.19 0.19 0.20 0.21 0.21 0.22 0.22 0.22 0.22 0.21 0.20 0.19 0.18 0.17 0.17 0.17 0.17 0.17 0.18 0.18 0.19 0.19 0.19 0.19 0.19 0.19 0.19 0.19 0.19 0.20 0.20 0.19 0.19 0.18 0.19 0.19 0.21 0.22 0.21 0.21 0.22 0.23 0.23 0.24 0.23 0.24 0.24 0.23
0.83 0.81 0.80 0.77 0.74 0.72 0.69 0.66 0.61 0.55 0.50 0.47 0.49 0.53 0.57 0.55 0.48 0.40 0.37 0.39 0.40 0.39 0.37 0.32 0.31 0.31 0.28 0.28 0.26 0.20 0.17 0.16 0.17 0.18 0.18 0.19 0.19 0.20 0.21 0.21 0.22 0.22 0.22 0.23 0.23 0.20 0.19 0.19 0.19 0.18 0.17 0.17 0.16 0.17 0.17 0.17 0.17 0.18 0.19 0.20 0.20 0.20 0.19 0.19 0.19 0.19 0.20 0.20 0.20 0.20 0.19 0.19 0.18 0.19 0.20 0.20 0.21 0.21 0.22 0.23 0.23 0.24 0.22 0.22 0.22
0.82 0.80 0.79 0.76 0.73 0.70 0.68 0.63 0.59 0.54 0.50 0.49 0.51 0.53 0.53 0.51 0.47 0.42 0.41 0.41 0.40 0.39 0.39 0.39 0.38 0.36 0.32 0.28 0.27 0.25 0.21 0.17 0.17 0.17 0.18 0.19 0.19 0.20 0.21 0.21 0.22 0.23 0.24 0.23 0.21 0.20 0.19 0.18 0.18 0.19 0.19 0.18 0.17 0.17 0.18 0.18 0.18 0.18 0.18 0.19 0.20 0.20 0.20 0.19 0.18 0.19 0.19 0.19 0.20 0.20 0.20 0.20 0.19 0.19 0.19 0.19 0.20 0.21 0.21 0.22 0.23 0.23 0.23 0.22 0.22
0.81 0.79 0.77 0.75 0.72 0.69 0.66 0.61 0.56 0.52 0.51 0.53 0.54 0.52 0.48 0.43 0.40 0.41 0.41 0.41 0.41 0.41 0.41 0.40 0.39 0.38 0.35 0.32 0.28 0.25 0.22 0.18 0.17 0.17 0.18 0.18 0.19 0.20 0.21 0.22 0.22 0.23 0.24 0.24 0.20 0.20 0.20 0.19 0.19 0.19 0.19 0.19 0.18 0.19 0.18 0.18 0.18 0.18 0.18 0.18 0.18 0.19 0.19 0.18 0.19 0.19 0.18 0.18 0.19 0.19 0.20 0.20 0.20 0.19 0.19 0.19 0.20 0.20 0.20 0.21 0.21 0.22 0.22 0.23 0.23
0.81 0.79 0.77 0.74 0.71 0.69 0.65 0.60 0.55 0.52 0.52 0.55 0.55 0.52 0.45 0.39 0.35 0.34 0.37 0.40 0.40 0.40 0.40 0.40 0.39 0.37 0.35 0.32 0.29 0.26 0.23 0.19 0.17 0.17 0.17 0.18 0.19 0.20 0.21 0.22 0.23 0.24 0.24 0.22 0.20 0.19 0.20 0.20 0.19 0.20 0.20 0.19 0.19 0.19 0.19 0.19 0.18 0.18 0.18 0.17 0.17 0.18 0.19 0.20 0.21 0.20 0.18 0.18 0.18 0.19 0.20 0.20 0.20 0.20 0.20 0.20 0.20 0.19 0.20 0.20 0.21 0.22 0.22 0.22 0.22
0.82 0.80 0.77 0.74 0.71 0.68 0.64 0.59 0.56 0.55 0.56 0.55 0.52 0.46 0.41 0.37 0.34 0.33 0.32 0.33 0.34 0.36 0.37 0.37 0.36 0.35 0.33 0.31 0.28 0.25 0.21 0.18 0.16 0.16 0.17 0.18 0.19 0.20 0.21 0.22 0.24 0.25 0.24 0.22 0.21 0.20 0.20 0.20 0.20 0.20 0.20 0.20 0.20 0.20 0.19 0.18 0.18 0.18 0.18 0.18 0.18 0.18 0.19 0.20 0.20 0.20 0.20 0.19 0.18 0.19 0.20 0.20 0.20 0.20 0.20 0.20 0.20 0.20 0.20 0.20 0.20 0.21 0.21 0.22 0.21
0.80 0.80 0.77 0.74 0.71 0.67 0.63 0.60 0.58 0.56 0.55 0.52 0.47 0.42 0.38 0.37 0.35 0.33 0.31 0.29 0.29 0.29 0.30 0.31 0.33 0.32 0.29 0.27 0.24 0.21 0.18 0.16 0.15 0.16 0.17 0.18 0.20 0.21 0.22 0.21 0.20 0.21 0.23 0.23 0.22 0.22 0.21 0.21 0.20 0.20 0.20 0.20 0.20 0.20 0.19 0.18 0.17 0.17 0.16 0.16 0.17 0.17 0.18 0.18 0.19 0.20 0.20 0.21 0.20 0.20 0.21 0.21 0.21 0.21 0.20 0.20 0.20 0.20 0.20 0.20 0.20 0.20 0.21 0.21 0.21
0.79 0.79 0.77 0.73 0.71 0.67 0.63 0.60 0.57 0.54 0.50 0.46 0.42 0.39 0.38 0.36 0.34 0.33 0.31 0.31 0.30 0.29 0.29 0.29 0.29 0.28 0.25 0.21 0.20 0.19 0.17 0.16 0.16 0.16 0.16 0.18 0.19 0.21 0.19 0.19 0.19 0.20 0.21 0.21 0.22 0.22 0.23 0.22 0.22 0.22 0.22 0.21 0.21 0.21 0.20 0.19 0.18 0.17 0.16 0.16 0.16 0.16 0.17 0.18 0.19 0.19 0.20 0.21 0.21 0.21 0.21 0.21 0.22 0.21 0.21 0.21 0.21 0.21 0.21 0.21 0.21 0.20 0.20 0.20 0.21
0.75 0.76 0.76 0.75 0.71 0.68 0.64 0.59 0.53 0.49 0.45 0.41 0.39 0.39 0.38 0.36 0.34 0.33 0.32 0.32 0.32 0.31 0.30 0.29 0.27 0.24 0.21 0.20 0.19 0.19 0.18 0.17 0.17 0.17 0.17 0.18 0.19 0.20 0.19 0.20 0.20 0.21 0.21 0.21 0.22 0.23 0.23 0.23 0.23 0.23 0.23 0.22 0.22 0.22 0.22 0.21 0.21 0.20 0.18 0.17 0.18 0.20 0.22 0.23 0.24 0.24 0.23 0.22 0.22 0.22 0.22 0.21 0.22 0.22 0.21 0.20 0.20 0.21 0.21 0.22 0.22 0.21 0.21 0.21 0.21
0.77 0.75 0.74 0.73 0.71 0.67 0.60 0.53 0.48 0.45 0.42 0.39 0.39 0.38 0.36 0.34 0.33 0.33 0.33 0.33 0.32 0.31 0.28 0.27 0.24 0.18 0.15 0.15 0.18 0.17 0.17 0.17 0.18 0.17 0.18 0.18 0.18 0.18 0.19 0.20 0.21 0.21 0.21 0.22 0.23 0.23 0.23 0.24 0.24 0.24 0.24 0.24 0.24 0.24 0.24 0.25 0.24 0.22 0.20 0.21 0.24 0.26 0.26 0.27 0.27 0.28 0.28 0.27 0.26 0.26 0.26 0.25 0.25 0.24 0.23 0.21 0.20 0.20 0.20 0.21 0.22 0.22 0.22 0.22 0.22
0.78 0.77 0.73 0.68 0.65 0.60 0.53 0.48 0.45 0.42 0.40 0.40 0.40 0.37 0.34 0.33 0.33 0.33 0.33 0.33 0.31 0.29 0.26 0.22 0.18 0.15 0.15 0.15 0.16 0.17 0.16 0.15 0.14 0.14 0.15 0.16 0.17 0.18 0.19 0.21 0.22 0.22 0.23 0.24 0.25 0.25 0.25 0.25 0.25 0.26 0.26 0.25 0.26 0.27 0.27 0.27 0.27 0.26 0.25 0.25 0.26 0.27 0.27 0.28 0.28 0.28 0.29 0.29 0.29 0.29 0.30 0.30 0.29 0.28 0.27 0.25 0.23 0.22 0.21 0.21 0.21 0.21 0.21 0.22 0.22
0.76 0.74 0.70 0.65 0.60 0.55 0.49 0.45 0.42 0.40 0.40 0.40 0.39 0.37 0.35 0.33 0.32 0.32 0.32 0.30 0.28 0.25 0.20 0.17 0.15 0.15 0.16 0.17 0.16 0.17 0.15 0.16 0.17 0.18 0.19 0.20 0.20 0.21 0.21 0.22 0.22 0.23 0.24 0.24 0.25 0.25 0.25 0.26 0.26 0.26 0.27 0.27 0.28 0.28 0.28 0.28 0.28 0.28 0.27 0.27 0.27 0.28 0.28 0.29 0.29 0.29 0.29 0.30 0.30 0.31 0.31 0.31 0.32 0.32 0.30 0.29 0.28 0.26 0.23 0.22 0.21 0.21 0.21 0.22 0.23
0.72 0.72 0.66 0.62 0.57 0.52 0.48 0.44 0.42 0.40 0.39 0.39 0.38 0.35 0.33 0.33 0.33 0.33 0.29 0.25 0.22 0.20 0.18 0.17 0.18 0.20 0.23 0.23 0.23 0.23 0.22 0.23 0.23 0.24 0.25 0.25 0.25 0.24 0.24 0.24 0.24 0.24 0.25 0.25 0.25 0.26 0.26 0.26 0.27 0.27 0.28 0.28 0.28 0.28 0.29 0.29 0.29 0.29 0.29 0.28 0.28 0.28 0.29 0.30 0.30 0.30 0.30 0.30 0.30 0.31 0.32 0.32 0.33 0.33 0.31 0.30 0.30 0.30 0.28 0.27 0.24 0.22 0.22 0.22 0.22
0.74 0.70 0.65 0.60 0.55 0.49 0.45 0.43 0.42 0.41 0.40 0.38 0.36 0.34 0.33 0.33 0.32 0.27 0.22 0.20 0.20 0.20 0.22 0.25 0.27 0.28 0.30 0.29 0.29 0.29 0.28 0.28 0.28 0.27 0.27 0.27 0.27 0.26 0.26 0.26 0.26 0.25 0.24 0.23 0.25 0.26 0.27 0.27 0.28 0.28 0.28 0.28 0.29 0.29 0.29 0.29 0.29 0.29 0.29 0.29 0.29 0.29 0.30 0.30 0.31 0.31 0.31 0.31 0.32 0.32 0.32 0.33 0.34 0.34 0.34 0.33 0.31 0.30 0.30 0.29 0.28 0.26 0.24 0.22 0.22
0.74 0.71 0.66 0.59 0.51 0.47 0.44 0.42 0.42 0.41 0.39 0.38 0.35 0.34 0.34 0.33 0.27 0.23 0.23 0.24 0.25 0.26 0.27 0.27 0.29 0.31 0.32 0.33 0.33 0.33 0.32 0.31 0.31 0.31 0.31 0.30 0.29 0.28 0.27 0.27 0.27 0.27 0.25 0.24 0.25 0.27 0.28 0.27 0.27 0.28 0.29 0.29 0.30 0.30 0.30 0.30 0.30 0.30 0.30 0.30 0.30 0.30 0.30 0.30 0.31 0.31 0.32 0.32 0.32 0.33 0.33 0.33 0.34 0.34 0.34 0.34 0.33 0.32 0.31 0.30 0.29 0.29 0.28 0.26 0.24
0.74 0.70 0.63 0.58 0.52 0.48 0.46 0.44 0.43 0.42 0.40 0.39 0.38 0.36 0.33 0.28 0.25 0.27 0.30 0.31 0.32 0.32 0.32 0.33 0.33 0.33 0.33 0.34 0.35 0.34 0.33 0.32 0.32 0.32 0.32 0.32 0.31 0.29 0.28 0.28 0.28 0.28 0.27 0.26 0.26 0.27 0.27 0.27 0.28 0.29 0.30 0.31 0.31 0.32 0.32 0.32 0.32 0.31 0.31 0.31 0.31 0.31 0.31 0.31 0.31 0.31 0.31 0.31 0.31 0.32 0.33 0.34 0.34 0.35 0.35 0.35 0.35 0.34 0.33 0.32 0.31 0.30 0.29 0.29 0.28
0.70 0.66 0.61 0.56 0.53 0.49 0.46 0.46 0.46 0.44 0.43 0.41 0.37 0.31 0.28 0.28 0.30 0.32 0.34 0.34 0.35 0.36 0.36 0.36 0.36 0.35 0.35 0.34 0.33 0.32 0.32 0.32 0.32 0.32 0.32 0.31 0.30 0.28 0.28 0.29 0.29 0.29 0.28 0.28 0.29 0.29 0.29 0.29 0.29 0.29 0.29 0.30 0.31 0.32 0.31 0.32 0.32 0.33 0.33 0.33 0.33 0.33 0.33 0.33 0.33 0.33 0.33 0.33 0.32 0.32 0.32 0.33 0.33 0.34 0.35 0.36 0.36 0.35 0.35 0.34 0.33 0.33 0.32 0.31 0.30
0.69 0.66 0.62 0.57 0.54 0.50 0.48 0.48 0.47 0.45 0.42 0.36 0.32 0.32 0.34 0.34 0.35 0.35 0.36 0.37 0.38 0.37 0.36 0.36 0.36 0.35 0.35 0.34 0.34 0.34 0.34 0.33 0.32 0.31 0.30 0.30 0.29 0.29 0.29 0.29 0.29 0.29 0.29 0.30 0.30 0.31 0.31 0.31 0.31 0.30 0.31 0.31 0.31 0.32 0.32 0.32 0.33 0.34 0.35 0.36 0.36 0.36 0.36 0.36 0.36 0.35 0.35 0.34 0.33 0.33 0.33 0.33 0.34 0.34 0.35 0.36 0.36 0.36 0.36 0.35 0.35 0.35 0.34 0.34 0.33
0.68 0.66 0.62 0.58 0.52 0.50 0.49 0.47 0.46 0.44 0.41 0.38 0.37 0.36 0.36 0.36 0.36 0.37 0.38 0.38 0.37 0.36 0.36 0.36 0.36 0.35 0.35 0.34 0.34 0.34 0.33 0.32 0.31 0.30 0.29 0.29 0.29 0.29 0.29 0.30 0.29 0.29 0.29 0.30 0.31 0.31 0.31 0.32 0.32 0.32 0.32 0.32 0.32 0.32 0.32 0.33 0.34 0.35 0.36 0.37 0.37 0.38 0.38 0.38 0.38 0.38 0.37 0.37 0.36 0.35 0.34 0.33 0.33 0.34 0.35 0.36 0.36 0.36 0.36 0.36 0.36 0.35 0.35 0.35 0.35
0.67 0.64 0.59 0.54 0.51 0.51 0.51 0.48 0.46 0.46 0.44 0.43 0.42 0.41 0.40 0.40 0.40 0.40 0.40 0.39 0.38 0.38 0.38 0.38 0.37 0.36 0.35 0.35 0.35 0.34 0.33 0.32 0.32 0.31 0.31 0.30 0.30 0.30 0.30 0.30 0.30 0.30 0.30 0.31 0.31 0.31 0.32 0.32 0.32 0.32 0.32 0.33 0.33 0.33 0.33 0.35 0.36 0.36 0.37 0.37 0.38 0.38 0.39 0.39 0.39 0.39 0.40 0.40 0.40 0.39 0.38 0.37 0.36 0.35 0.35 0.36 0.36 0.36 0.36 0.36 0.37 0.37 0.37 0.37 0.37
0.65 0.62 0.57 0.55 0.54 0.52 0.51 0.50 0.49 0.47 0.44 0.43 0.43 0.42 0.41 0.40 0.41 0.41 0.42 0.41 0.40 0.39 0.39 0.38 0.38 0.37 0.36 0.35 0.34 0.33 0.33 0.32 0.31 0.31 0.31 0.31 0.31 0.31 0.31 0.31 0.32 0.32 0.32 0.31 0.32 0.32 0.33 0.34 0.34 0.34 0.34 0.34 0.34 0.34 0.35 0.36 0.37 0.37 0.37 0.38 0.38 0.39 0.39 0.40 0.41 0.41 0.41 0.41 0.41 0.41 0.41 0.41 0.40 0.39 0.39 0.39 0.38 0.38 0.38 0.38 0.38 0.38 0.38 0.38 0.38
0.68 0.65 0.60 0.58 0.56 0.55 0.54 0.53 0.51 0.49 0.48 0.47 0.45 0.44 0.44 0.44 0.44 0.43 0.41 0.40 0.40 0.40 0.40 0.40 0.39 0.37 0.36 0.35 0.34 0.33 0.32 0.31 0.31 0.31 0.31 0.31 0.32 0.33 0.33 0.33 0.34 0.34 0.34 0.34 0.34 0.35 0.35 0.35 0.35 0.35 0.35 0.35 0.35 0.36 0.37 0.37 0.38 0.38 0.38 0.39 0.39 0.40 0.40 0.41 0.43 0.44 0.44 0.44 0.45 0.44 0.44 0.43 0.42 0.42 0.41 0.41 0.41 0.41 0.40 0.40 0.40 0.40 0.39 0.38 0.38
0.67 0.63 0.62 0.60 0.58 0.56 0.55 0.54 0.52 0.51 0.50 0.48 0.47 0.45 0.44 0.43 0.43 0.43 0.42 0.41 0.39 0.39 0.39 0.39 0.37 0.36 0.35 0.34 0.33 0.32 0.31 0.32 0.32 0.32 0.32 0.32 0.33 0.34 0.34 0.34 0.34 0.34 0.35 0.35 0.36 0.36 0.37 0.36 0.36 0.37 0.37 0.37 0.38 0.39 0.39 0.40 0.40 0.40 0.40 0.40 0.41 0.41 0.41 0.42 0.43 0.44 0.46 0.47 0.48 0.47 0.46 0.46 0.45 0.44 0.43 0.42 0.42 0.42 0.42 0.42 0.42 0.41 0.40 0.39 0.39
Wind_Speed
16 16 16 16 16 16 16 15 14 13 12 11 10 10 9 9 9 8 8 8 7 7 7 7 8 8 9 10 10 11 11 11 12 12 12 13 13 14 15 16 17 17 18 19 20 21 22 23 23 23 24 24 25 25 26 27 28 29 30 31 32 32 33 33 34 36 37 37 37 38 39 40 40 39 40 40 40 41 41 41 41 40 40 40 40
16 16 16 16 17 17 17 15 14 13 12 11 11 10 10 9 9 9 9 8 8 8 8 8 9 9 10 10 10 11 11 11 12 12 12 12 13 14 15 16 16 17 18 19 20 21 22 23 23 24 24 25 25 26 28 29 30 31 31 32 32 33 33 34 34 35 37 38 38 38 39 40 40 40 41 41 41 41 41 41 41 41 40 40 40
16 16 16 16 17 17 17 15 14 13 13 12 12 11 10 10 10 10 9 9 9 9 9 9 9 10 10 10 11 11 11 11 11 11 11 12 13 14 15 15 16 17 18 19 21 22 22 23 23 24 24 25 26 28 29 30 31 31 32 32 33 33 33 34 34 35 37 38 39 40 40 40 41 41 41 41 41 41 40 40 40 41 41 41 41
16 16 16 16 16 17 16 15 14 14 13 13 12 12 11 11 10 10 9 9 10 9 9 10 10 10 10 10 10 10 10 10 10 11 12 12 13 14 15 15 17 18 19 20 21 21 22 22 23 24 25 26 28 29 30 31 31 31 32 32 32 33 33 34 35 36 37 39 40 40 41 41 41 41 41 41 41 40 40 40 41 41 41 41 41
17 17 16 16 16 16 16 15 15 14 14 13 12 12 12 11 11 10 10 10 10 10 10 10 10 10 10 9 9 9 9 10 10 11 11 12 13 14 15 16 17 18 19 20 21 21 22 23 24 25 26 28 29 30 30 31 31 31 31 32 32 33 34 35 36 36 37 39 40 40 41 41 41 41 41 42 41 40 40 39 40 40 41 41 41
17 17 16 16 16 16 16 15 15 14 14 13 13 13 12 12 11 11 11 11 11 11 11 10 10 9 9 9 9 9 9 9 10 11 11 12 13 14 15 16 17 18 19 20 20 21 22 23 24 26 27 28 29 30 30 30 30 31 32 32 33 34 35 35 36 37 37 38 39 40 41 41 41 41 41 41 40 40 39 38 38 38 39 39 39
17 17 17 16 16 16 15 15 15 14 14 14 13 13 12 12 11 11 11 11 11 10 10 9 9 9 8 8 8 8 9 9 10 11 12 13 14 15 15 16 17 18 19 19 20 21 22 24 25 26 27 28 28 29 29 30 30 31 32 33 33 34 35 36 36 37 37 38 38 39 40 40 40 40 40 39 38 38 38 37 37 37 37 37 38
17 17 17 16 16 15 15 15 15 14 14 13 13 12 12 12 11 11 11 10 10 10 9 9 8 8 8 8 8 8 9 9 10 11 12 13 14 15 15 16 17 17 18 19 20 21 23 24 25 26 27 27 28 28 29 30 31 31 32 33 34 34 35 36 36 37 37 37 37 38 39 39 39 40 40 39 37 37 36 37 37 38 37 37 37
18 17 17 16 16 15 15 15 15 15 14 13 13 12 12 11 11 11 10 10 10 9 9 9 9 9 9 8 8 9 9 10 10 11 12 13 14 15 15 16 16 17 18 19 20 22 23 24 25 26 26 27 28 29 29 30 31 31 32 33 34 34 35 36 36 36 36 36 37 38 38 39 40 41 40 39 38 37 37 36 36 37 38 37 36
18 18 17 16 16 16 15 15 15 15 15 14 13 13 12 11 11 11 10 10 9 9 9 9 9 9 9 9 9 9 9 10 10 11 12 13 14 15 15 15 16 17 18 19 20 22 23 23 25 26 26 27 28 29 30 31 31 32 32 33 33 34 35 35 35 35 35 36 37 38 39 39 41 41 40 39 38 37 36 36 36 37 38 37 35
19 18 17 17 16 16 15 15 15 15 15 14 14 13 12 12 11 11 10 10 10 10 10 10 10 10 9 9 9 9 10 10 11 11 12 13 13 14 14 15 16 17 18 19 20 21 22 23 24 25 26 27 28 29 30 31 32 32 32 33 33 33 34 34 34 35 35 36 37 38 39 40 41 41 41 40 38 37 36 36 37 37 36 35 33
20 19 18 17 17 16 16 15 16 16 15 15 14 13 12 12 12 11 11 10 10 10 10 10 10 10 10 9 9 10 10 11 11 11 12 12 13 13 14 15 16 17 18 19 20 21 22 23 24 25 26 28 28 29 30 31 31 31 32 32 32 32 32 33 33 34 35 36 37 38 39 40 41 42 41 40 38 36 36 36 36 36 35 33 32
21 20 19 18 18 17 17 16 16 16 15 15 14 13 13 12 12 12 11 11 11 10 10 10 10 10 10 10 10 10 11 11 11 11 11 12 12 13 14 15 15 16 17 19 20 21 22 23 24 25 26 27 28 29 29 30 30 30 31 30 30 31 32 32 33 34 35 36 37 38 39 40 41 42 42 40 38 36 36 36 36 36 34 33 32
21 21 20 20 19 19 18 17 17 16 16 15 15 14 13 13 13 12 12 11 11 11 11 11 10 10 10 10 10 10 11 11 11 11 11 11 12 13 14 14 15 16 17 18 19 20 21 22 23 25 26 27 27 28 28 29 29 29 29 29 29 30 31 32 32 33 34 35 37 38 39 40 41 42 42 41 38 36 36 36 36 36 35 34 32
22 22 21 21 20 20 19 18 18 17 17 16 15 14 14 13 13 13 12 11 11 11 11 11 11 10 10 10 10 10 11 11 11 10 10 11 12 13 13 14 15 16 17 18 19 20 21 22 23 24 25 26 27 28 28 28 28 28 28 28 29 29 30 31 32 33 34 35 36 37 39 40 40 41 42 40 37 36 36 36 36 36 36 34 31
22 22 22 21 21 21 20 19 19 19 18 17 16 15 14 13 13 13 12 12 11 11 11 11 11 10 10 10 10 10 11 10 10 10 10 11 12 13 13 14 15 16 17 18 19 19 21 22 23 24 24 25 26 27 28 28 28 27 28 28 29 29 30 31 33 33 34 35 36 37 39 40 41 41 42 40 38 36 36 36 36 37 36 34 31
22 22 22 22 22 22 21 20 20 20 19 18 17 15 14 13 13 13 12 12 12 12 11 11 11 10 9 10 10 10 10 10 10 10 10 10 11 12 12 13 14 15 16 17 18 19 20 21 22 23 24 24 26 27 27 27 27 27 27 28 29 29 30 31 32 33 34 35 36 37 39 40 41 41 41 41 39 38 36 37 38 37 35 33 31
23 23 23 23 23 23 22 21 21 20 20 19 18 16 14 13 13 13 13 12 12 12 11 11 10 10 9 9 9 9 10 10 10 10 10 10 10 11 12 13 14 15 16 17 18 19 20 21 22 22 23 24 25 26 27 26 26 26 27 28 28 29 30 31 32 33 34 34 35 37 38 39 40 40 41 41 41 39 37 37 38 38 36 34 33
23 23 23 23 23 23 23 22 22 21 21 20 18 17 15 14 13 13 12 12 12 12 11 11 10 10 9 9 9 10 10 10 9 9 9 9 10 11 12 12 13 14 15 16 17 18 19 20 21 22 23 24 25 26 26 26 26 26 27 28 28 29 30 31 31 32 33 34 35 36 37 39 40 40 40 40 40 40 38 37 37 37 36 35 34
23 22 21 21 21 22 22 22 22 22 21 20 19 17 15 14 13 12 12 12 12 11 11 10 10 9 9 10 10 10 10 10 9 9 9 9 9 10 11 12 12 13 15 15 16 17 18 19 20 22 23 24 24 25 25 25 25 26 26 27 28 29 30 31 31 32 33 34 35 36 36 38 39 39 39 39 39 39 39 37 37 37 37 36 34
21 21 21 20 20 21 21 21 21 21 21 20 18 17 15 14 13 12 12 12 12 11 10 10 9 9 9 9 10 10 10 10 9 9 9 9 9 10 11 11 11 13 14 15 16 17 18 19 20 21 23 24 24 24 25 25 25 26 26 27 28 29 30 30 31 32 33 34 35 35 36 37 38 38 39 39 38 39 39 38 37 37 37 36 34
21 21 20 20 20 20 20 20 20 20 20 19 18 17 15 14 13 13 13 12 12 11 10 10 9 9 9 9 9 9 9 9 9 9 9 9 9 10 10 10 11 12 13 14 15 16 17 18 19 21 22 23 23 24 24 25 25 25 26 27 28 29 29 30 30 31 32 33 34 35 35 36 37 38 38 38 38 38 38 39 38 37 37 37 35
21 20 20 20 20 20 20 20 19 19 20 19 18 17 16 15 14 14 13 13 12 11 11 10 10 9 9 9 9 9 9 9 9 9 8 9 9 9 9 10 11 12 13 14 15 16 17 17 19 20 22 22 23 23 24 24 25 25 26 27 28 29 29 29 30 31 32 33 34 35 35 35 36 37 38 38 38 38 39 39 38 37 36 36 35
21 20 20 20 20 20 20 20 20 19 20 19 18 17 16 16 15 15 14 13 13 12 11 11 10 10 10 10 9 9 10 9 9 8 8 8 8 9 9 9 10 11 12 13 14 15 16 17 18 20 21 22 22 23 23 24 24 25 26 27 27 28 28 29 30 30 31 32 33 34 35 35 35 36 37 37 37 37 38 38 38 37 36 36 35
21 21 20 20 20 19 20 20 20 19 19 18 18 17 17 16 15 15 14 14 13 12 12 11 11 11 10 10 10 10 10 10 9 9 8 8 8 8 9 9 10 11 12 13 14 15 16 17 18 19 20 21 22 22 23 23 24 25 25 26 27 27 28 29 29 30 31 32 33 33 34 34 34 35 36 36 36 36 36 36 37 37 36 36 36
21 21 20 20 20 20 20 20 20 19 18 18 17 17 17 16 16 15 15 14 14 13 12 12 11 11 11 10 10 10 10 10 9 9 9 8 8 8 9 9 10 11 12 13 14 14 15 16 17 18 19 20 21 22 22 23 24 24 25 26 26 27 27 28 29 30 30 31 32 32 33 33 33 34 34 35 35 35 35 35 35 36 36 36 35
22 21 21 20 20 21 21 20 19 19 18 18 17 17 17 16 16 16 15 15 14 13 13 13 12 12 11 11 11 11 10 10 10 9 9 8 8 8 9 9 10 11 12 12 13 14 15 16 17 18 19 20 21 21 22 23 23 24 25 25 26 26 27 27 28 29 30 30 31 31 32 32 32 33 33 34 34 35 35 34 34 35 35 35 35
22 22 22 21 21 21 21 20 20 19 18 18 17 17 17 17 17 16 16 15 15 14 14 14 13 12 12 11 11 11 11 10 10 10 9 9 8 9 9 9 10 11 12 12 13 14 15 16 17 18 19 20 21 21 22 22 23 23 24 25 25 26 26 27 27 28 29 29 30 30 31 31 32 32 32 32 33 33 34 34 33 33 33 34 34
23 23 22 21 21 21 21 21 20 19 19 18 18 17 17 17 17 17 16 16 15 15 14 14 14 13 12 12 12 11 11 11 10 10 10 9 9 9 9 9 10 11 12 12 13 14 14 16 17 18 19 20 21 21 22 22 23 23 24 25 25 26 26 26 27 27 28 28 29 29 30 31 31 31 31 32 32 32 32 33 32 32 32 33 33
24 24 23 22 22 22 21 21 20 20 19 19 19 18 17 17 17 17 17 16 16 15 15 14 14 13 12 12 12 12 11 11 11 11 10 10 10 10 10 10 10 11 12 12 13 13 14 15 16 17 18 19 20 21 21 22 22 23 24 25 25 26 26 26 26 26 27 27 28 29 29 30 30 30 31 31 31 31 31 31 31 31 31 31 31
25 24 24 23 23 23 22 21 21 20 20 20 19 18 17 17 17 17 16 16 16 16 16 15 14 13 13 13 12 12 12 12 11 11 11 11 11 11 11 11 11 12 12 12 13 14 15 16 17 17 18 19 20 20 21 21 22 23 24 25 25 25 26 26 26 26 26 26 27 28 28 29 29 29 30 30 30 30 30 30 30 30 30 30 30
25 25 24 24 24 23 23 22 21 21 20 20 20 19 18 17 17 16 16 16 16 16 16 15 15 15 14 13 13 13 13 12 12 12 12 12 12 12 11 12 12 13 12 13 13 14 15 16 17 18 18 19 20 20 21 21 22 23 24 25 25 25 25 25 25 25 25 26 26 26 27 28 28 28 29 29 29 29 29 30 30 29 29 29 29
26 26 25 25 25 24 23 22 22 21 21 21 20 19 19 18 18 17 16 16 15 16 16 16 16 16 15 15 14 14 13 13 13 13 13 13 12 12 12 13 13 13 13 13 14 15 15 16 17 18 18 19 20 20 21 22 22 23 24 24 25 25 25 25 25 25 25 25 25 25 26 26 27 27 27 28 28 28 28 28 29 29 28 28 28
27 27 26 25 25 24 24 23 22 22 21 21 21 20 19 19 19 18 17 16 15 15 16 16 16 16 16 16 15 14 14 14 14 13 13 13 13 13 13 13 13 13 13 14 14 15 16 16 17 18 18 19 20 21 21 22 23 23 24 24 25 25 26 26 25 25 25 25 25 25 25 25 26 26 26 26 27 27 27 27 27 27 27 27 27
26 27 27 26 26 25 24 24 23 22 22 22 21 21 20 19 19 18 18 17 16 16 16 16 16 16 16 16 15 15 14 14 14 14 14 14 14 14 14 14 14 14 14 15 15 16 16 17 18 18 19 19 20 21 22 22 23 24 24 25 25 25 26 26 26 26 25 25 25 25 25 25 25 25 25 25 25 26 26 26 26 26 26 26 26
26 27 27 27 27 26 25 24 24 23 23 22 22 21 20 20 20 19 18 18 17 17 17 17 17 16 16 16 16 15 15 15 15 15 15 15 15 15 15 15 15 15 15 16 16 16 17 18 18 19 19 20 21 21 22 23 24 24 24 24 25 25 26 26 26 25 25 25 25 24 24 24 25 24 24 24 24 25 25 25 25 25 25 25 24
27 27 27 27 28 27 26 25 24 23 23 23 22 22 21 21 20 20 19 19 18 18 18 18 17 17 17 17 16 16 16 16 15 15 15 16 16 16 16 16 16 16 16 17 17 17 18 18 19 19 19 20 21 21 22 23 24 24 24 24 24 25 25 25 25 25 25 25 25 25 24 24 24 24 24 24 24 24 24 24 24 24 24 24 24
28 28 27 27 28 28 27 25 24 24 23 23 23 23 22 22 21 20 20 20 19 19 19 18 18 18 18 17 17 16 16 16 16 16 16 16 16 16 16 17 17 17 17 17 18 18 19 19 19 19 20 21 21 22 23 23 24 24 24 24 24 25 25 25 25 25 25 25 25 25 24 24 24 24 24 24 24 23 23 23 23 23 23 23 23
27 28 28 28 28 28 27 26 25 25 24 24 23 23 23 23 22 21 21 20 20 20 19 19 19 18 18 17 17 16 16 16 16 16 16 16 16 17 17 17 17 18 18 18 18 19 19 19 20 20 21 21 22 22 23 23 24 24 24 24 24 25 25 25 26 26 26 26 25 25 25 25 24 24 24 23 24 23 23 23 23 23 23 23 23
27 27 28 28 28 28 27 26 26 25 25 24 24 24 24 23 22 22 21 21 21 20 20 19 19 18 18 17 17 17 17 17 16 16 16 16 16 17 17 18 18 19 19 19 19 20 20 20 21 21 22 22 23 23 23 24 24 24 24 24 24 25 25 26 26 27 27 27 26 26 25 25 25 25 24 24 24 24 23 23 23 23 22 22 22
26 28 28 29 29 28 28 27 27 26 26 25 25 25 24 24 23 22 22 22 21 21 20 20 19 18 18 18 17 17 17 17 17 17 17 17 17 18 18 19 19 20 20 20 21 21 21 21 22 22 23 23 23 24 24 24 24 24 25 25 25 26 26 26 27 27 27 28 28 27 27 26 25 25 25 25 25 24 24 24 24 23 23 23 22
26 28 29 30 30 29 28 28 27 27 26 26 25 25 25 24 23 23 22 22 22 21 21 20 20 19 19 18 18 18 18 18 18 18 18 18 18 19 19 20 20 21 21 21 21 21 22 22 22 23 23 24 24 24 25 25 25 25 26 26 27 27 27 28 28 28 28 28 28 28 28 27 26 26 25 25 25 25 25 25 24 24 24 23 23
26 27 29 31 31 29 28 28 27 26 26 26 26 26 25 24 23 23 22 22 22 21 21 21 21 20 20 20 19 19 20 20 20 20 20 20 20 20 20 21 21 21 22 22 22 22 23 23 23 24 24 25 25 25 26 26 26 26 27 28 28 28 29 29 29 29 29 29 29 29 28 28 27 26 26 25 25 25 25 25 25 25 25 25 24
26 27 29 30 30 29 28 28 27 26 26 26 26 26 26 25 24 23 23 22 22 22 22 22 22 21 21 21 21 21 21 21 21 21 21 21 21 21 21 21 21 21 22 22 23 23 23 24 24 25 25 26 26 26 27 27 27 28 28 29 29 29 30 30 30 30 30 30 30 30 29 28 27 27 26 26 26 25 26 26 26 26 26 25 25
26 26 27 29 30 29 28 27 27 26 27 27 27 26 26 25 25 24 24 24 23 23 23 23 23 22 22 22 22 22 22 22 22 22 22 22 22 22 22 22 22 22 23 23 24 24 25 25 25 26 26 27 27 28 28 28 28 29 29 29 30 30 31 31 31 31 31 31 31 30 29 28 28 28 28 27 27 27 27 27 27 27 26 26 26
26 26 26 27 28 28 27 27 26 26 26 27 26 26 25 25 25 25 25 25 25 25 24 24 23 23 23 23 23 23 22 22 23 23 23 23 23 22 23 23 23 24 24 25 25 26 26 27 27 27 27 28 29 29 29 29 30 30 30 30 31 31 32 32 33 33 33 32 32 31 30 29 29 29 29 29 29 29 29 29 28 28 28 28 27
26 26 26 26 27 27 27 26 26 26 26 26 26 26 25 25 25 25 25 25 25 25 25 25 24 23 24 24 23 23 23 23 23 22 22 23 23 23 24 24 25 25 26 26 27 28 28 28 29 29 29 30 30 30 30 31 30 30 31 31 31 32 32 33 33 33 33 33 33 32 31 31 31 30 31 31 31 31 31 31 31 30 30 30 29
27 26 26 26 27 27 26 26 26 26 26 26 26 26 26 26 25 25 25 25 25 25 25 25 24 24 24 24 24 23 23 23 23 23 23 24 24 24 25 25 26 26 27 27 28 28 29 29 30 30 30 30 31 31 31 31 31 31 31 32 33 33 33 33 34 34 34 34 33 33 33 33 32 32 32 32 32 33 33 33 33 32 32 32 32
26 25 25 26 27 27 26 25 26 25 25 25 26 26 26 26 26 25 25 25 25 25 25 25 24 24 24 24 24 24 24 24 24 24 25 25 25 25 26 26 26 27 27 28 28 29 30 30 30 30 31 31 31 31 31 31 31 32 33 34 34 35 35 35 35 35 35 35 35 35 34 34 34 35 35 35 34 34 34 34 34 34 34 34 33
24 24 24 25 26 26 26 26 25 25 25 25 25 25 25 25 26 25 25 25 25 25 25 25 25 25 25 25 25 25 25 25 25 25 26 26 26 26 26 27 27 28 28 29 30 30 31 31 31 31 31 32 32 32 32 32 33 33 34 35 35 36 36 36 36 36 36 36 37 37 36 36 36 37 37 37 37 36 36 36 36 36 35 35 35
21 22 23 23 23 24 25 25 24 24 24 24 24 24 24 25 25 26 25 25 25 25 25 25 25 25 26 26 25 25 26 26 26 26 27 27 27 27 27 28 28 29 29 30 30 31 31 31 31 31 31 31 32 32 33 33 34 34 35 36 37 37 37 37 37 37 37 38 38 38 38 38 38 38 39 38 38 38 38 38 37 37 37 37 37
Wind_Direction
198 199 200 200 199 197 197 198 202 206 210 213 217 220 224 227 227 227 230 238 246 253 262 271 279 285 288 292 295 297 300 304 308 309 310 314 318 320 322 323 326 327 327 329 330 330 332 333 334 334 334 333 333 333 332 331 331 330 329 328 327 325 323 321 318 318 319 319 318 317 317 316 314 313 311 309 308 306 303 301 299 296 293 290 287
198 199 201 201 201 200 200 202 206 210 213 217 220 223 227 229 227 229 235 243 251 258 266 272 278 283 287 291 294 297 301 305 307 308 311 316 319 321 322 324 326 327 328 330 330 331 332 334 334 334 334 333 333 332 332 331 330 330 329 328 327 326 324 322 320 319 320 321 321 320 319 318 316 315 313 310 309 307 304 302 300 298 295 292 288
199 200 202 203 203 202 203 206 210 214 216 220 222 225 227 227 227 231 239 247 254 260 265 271 277 282 286 289 292 296 301 304 306 309 313 317 320 321 323 325 327 328 329 330 331 331 333 334 334 334 333 333 332 332 331 331 330 330 329 328 327 327 326 325 323 322 321 322 323 322 321 319 318 316 314 312 309 307 305 303 301 299 297 294 291
203 203 204 205 206 206 208 212 214 216 218 221 223 224 226 226 229 235 243 250 255 259 264 269 275 280 284 287 292 297 301 304 306 310 314 317 320 322 324 326 328 329 330 331 331 332 333 334 333 332 332 332 332 331 331 331 331 330 330 330 329 329 329 328 326 325 323 323 324 323 322 320 319 317 315 313 311 309 306 304 302 300 298 296 292
206 206 208 208 209 210 213 215 216 217 219 221 222 223 225 227 233 240 246 250 254 258 264 269 274 278 282 286 292 297 301 304 307 311 315 318 320 323 325 327 328 329 330 331 331 332 332 332 332 332 332 332 332 332 332 331 331 331 331 331 331 331 330 330 329 327 326 325 325 325 324 322 320 319 317 315 313 310 308 306 304 301 299 296 293
209 210 211 212 212 214 215 216 217 218 219 221 222 223 226 231 237 243 248 251 254 259 263 267 271 275 279 285 292 298 301 304 308 311 315 317 320 322 325 326 327 328 329 331 331 331 332 331 332 332 332 333 333 333 333 333 333 333 333 333 333 332 332 331 330 330 328 327 327 327 327 325 323 322 320 319 316 313 311 309 308 306 303 299 295
212 213 213 213 214 215 216 217 218 219 220 221 223 227 230 236 241 244 247 250 253 257 260 263 267 271 277 284 290 296 300 305 310 313 315 317 319 322 324 324 326 328 330 331 331 331 332 332 332 333 333 333 333 334 334 334 334 334 334 334 334 333 333 333 332 332 331 330 330 330 330 330 328 326 325 323 321 318 316 313 312 311 308 304 300
213 214 213 213 214 215 217 218 219 220 221 222 225 229 233 237 241 243 246 248 252 255 256 258 262 268 274 280 285 292 299 306 311 314 316 317 319 321 322 323 326 329 330 330 331 331 332 333 333 334 334 334 335 335 335 335 335 335 335 335 335 334 334 334 334 334 333 333 334 334 334 334 333 331 329 327 325 323 321 318 315 313 312 308 304
214 213 212 212 214 216 218 220 221 221 221 222 226 230 233 236 239 242 244 247 249 251 252 255 260 265 271 277 283 290 298 304 309 314 316 319 320 321 322 324 326 328 329 330 331 332 333 334 334 335 336 336 337 336 336 336 335 335 336 336 336 336 336 336 336 336 337 338 338 338 338 337 337 335 333 331 328 325 323 321 318 317 315 311 308
214 213 213 214 217 219 220 221 221 220 220 223 226 230 233 235 238 240 242 243 245 247 249 253 259 264 270 275 281 287 294 300 306 312 317 319 320 321 323 325 326 328 329 331 333 334 334 335 336 337 337 338 338 338 338 337 337 337 337 338 338 337 338 338 339 340 341 341 341 341 341 340 340 339 337 334 332 329 326 324 322 320 318 314 311
215 214 215 217 219 220 221 220 219 218 220 223 226 230 233 235 237 239 239 241 243 245 248 253 259 265 269 273 277 283 291 298 305 311 316 319 321 322 323 325 326 328 330 333 334 335 336 336 337 338 339 339 339 339 339 340 340 340 340 340 340 341 341 342 343 344 344 344 344 344 344 343 343 343 340 338 336 333 330 328 326 324 322 318 314
216 216 218 219 221 221 220 219 218 218 219 222 226 230 233 236 238 238 238 240 241 244 248 253 258 263 267 270 274 281 289 297 303 309 313 317 320 322 323 325 327 330 332 334 336 336 337 338 339 339 340 341 341 341 341 342 342 342 342 343 344 345 345 345 345 346 346 346 346 347 346 346 346 346 344 342 339 336 334 332 332 330 328 324 320
217 218 220 221 222 222 221 220 220 220 220 223 227 230 233 236 237 237 237 238 240 244 249 253 257 261 264 268 274 282 291 297 302 306 310 315 319 322 324 325 328 331 333 335 336 338 339 340 340 340 341 342 343 343 343 343 344 344 345 346 347 348 348 348 348 348 348 349 349 349 349 348 348 348 348 346 343 340 338 337 337 336 333 330 326
220 221 222 223 223 223 223 222 221 221 222 224 227 231 234 236 236 236 236 237 240 244 248 252 255 257 261 268 276 285 293 297 300 304 308 312 318 322 324 326 329 332 334 336 338 339 340 340 341 341 342 343 344 345 345 345 346 347 348 349 350 350 350 350 350 350 351 351 352 352 352 351 351 351 351 351 348 345 343 342 342 340 337 335 332
222 223 223 224 224 224 224 222 221 221 222 224 227 230 233 234 234 234 236 238 242 245 248 250 252 254 260 270 279 289 296 299 300 303 307 311 317 322 324 327 330 333 335 337 339 339 339 340 341 342 343 345 346 346 347 348 348 350 351 352 352 352 352 352 352 352 352 354 354 354 354 354 354 353 354 354 353 351 349 347 346 344 342 341 339
222 224 225 225 225 226 226 224 222 222 222 224 227 229 231 233 234 234 236 239 242 246 248 248 249 253 262 273 283 292 299 301 301 302 306 311 317 321 324 328 332 335 337 338 339 339 339 341 342 344 345 346 347 348 349 350 351 352 353 354 354 354 354 354 354 354 354 355 356 356 357 356 356 356 357 357 356 354 353 352 350 349 348 347 345
224 226 227 226 227 227 227 226 223 222 222 223 225 228 230 232 234 235 236 238 240 243 244 245 249 256 265 276 285 292 298 301 301 302 306 311 316 320 324 329 333 336 337 338 339 339 340 342 344 346 347 348 348 350 352 353 353 354 354 355 355 356 356 356 356 356 356 356 357 358 358 358 358 358 359 360 359 358 356 355 355 354 354 353 350
226 228 229 229 228 229 229 228 224 222 223 224 225 227 230 233 236 236 236 237 239 240 240 242 250 260 268 277 285 290 295 298 300 303 306 310 314 319 324 330 333 335 336 337 338 340 341 344 346 347 348 349 350 352 354 354 354 355 355 355 356 356 356 356 356 357 358 358 359 359 360 0 0 1 1 2 2 1 360 359 359 359 358 358 356
226 230 233 231 230 231 231 228 226 224 224 225 226 228 231 234 237 236 236 237 237 236 238 242 251 261 269 276 282 287 292 296 299 302 305 308 313 319 324 329 333 334 336 337 338 340 343 345 347 348 349 350 351 353 354 355 355 355 355 355 356 356 356 356 356 357 358 359 360 0 1 2 2 3 3 4 5 5 3 2 2 3 2 1 1
228 231 233 232 231 232 231 228 227 226 225 224 226 229 231 232 233 233 234 236 235 234 237 244 252 260 268 274 279 284 289 293 297 300 303 307 313 319 323 328 331 333 335 336 338 341 344 346 347 349 350 351 353 354 354 355 355 355 355 356 356 356 356 357 357 357 358 360 1 1 2 3 4 5 5 6 7 7 7 6 5 6 6 6 6
228 230 231 231 232 233 231 229 228 227 225 224 225 227 230 231 232 232 232 232 233 234 240 245 252 259 266 271 277 281 286 290 293 296 300 305 312 318 322 326 329 331 333 336 338 342 345 346 347 348 350 352 353 354 354 355 355 355 355 356 356 356 356 357 358 358 359 360 1 2 3 4 5 6 7 8 9 9 10 10 9 9 10 10 10
228 229 230 231 232 232 231 228 227 225 224 223 224 226 231 232 232 231 230 230 232 236 241 246 251 257 264 270 276 280 283 285 289 292 298 305 312 317 321 324 327 329 332 336 339 342 344 346 347 348 350 352 354 354 354 355 355 356 356 356 356 356 357 358 359 359 360 0 1 3 4 5 5 6 8 9 10 11 12 12 12 12 12 13 13
227 228 229 231 232 231 228 226 224 222 223 224 225 228 231 230 230 230 229 230 233 236 241 246 250 255 263 269 274 279 281 282 284 288 295 304 311 316 320 323 325 328 332 335 338 341 344 345 347 348 350 352 354 354 354 354 355 356 356 356 356 357 358 359 360 0 1 1 2 3 4 5 6 7 8 10 11 12 13 14 14 14 14 15 16
226 228 230 231 229 227 225 223 221 221 222 224 226 228 227 226 227 229 230 231 235 238 241 246 250 255 260 265 270 274 277 280 282 286 293 302 308 313 317 321 324 326 329 333 337 340 343 344 345 348 350 352 353 353 353 354 355 355 356 356 357 357 358 359 0 1 1 2 2 3 4 5 6 8 9 10 12 12 14 15 16 16 17 18 19
226 228 229 229 225 222 221 220 218 219 221 223 225 225 224 224 225 228 231 233 235 238 242 246 250 255 258 261 265 269 273 277 280 284 291 298 303 308 312 317 322 324 327 331 335 338 340 342 345 348 350 351 352 352 352 353 354 355 355 356 357 358 359 359 0 1 2 2 3 3 4 5 6 8 9 11 12 13 14 16 17 18 19 20 21
225 227 227 225 222 218 217 217 218 219 221 223 225 225 224 224 226 229 232 234 236 239 242 245 249 253 255 258 261 265 269 274 277 282 288 294 297 302 307 313 318 320 323 328 332 335 339 342 344 347 349 350 351 351 351 352 353 354 355 356 357 357 358 359 0 1 2 3 3 3 4 5 6 8 9 11 12 13 14 16 17 19 20 20 22
222 224 224 222 219 217 216 217 218 219 221 223 225 225 225 226 228 229 231 233 236 238 242 244 246 249 252 255 259 262 266 271 274 277 283 288 292 296 302 309 314 317 321 326 331 334 338 341 343 345 346 348 349 349 350 351 352 353 354 354 355 357 358 358 360 1 2 2 3 3 4 5 6 7 8 10 12 13 14 16 17 18 20 21 22
220 221 221 220 218 217 217 217 218 220 222 223 224 224 226 228 230 231 232 234 236 238 242 244 244 246 249 253 257 260 264 269 271 273 276 281 285 291 297 304 309 313 318 323 328 332 335 338 341 343 344 345 347 347 348 349 350 351 352 353 354 355 356 357 358 359 0 1 2 3 3 4 5 6 7 9 11 12 14 15 17 18 20 21 22
218 219 220 219 218 218 219 219 220 221 222 223 224 226 229 232 232 233 234 235 237 240 242 244 245 247 250 253 256 259 263 267 268 268 270 274 279 285 292 299 303 308 314 320 325 329 333 336 338 340 342 343 344 345 346 347 348 349 350 351 352 353 354 355 356 357 358 359 1 2 3 4 5 6 7 8 9 11 13 14 16 17 19 21 22
218 219 220 219 218 219 219 220 221 222 222 222 225 229 234 235 234 233 234 236 238 241 243 245 247 248 251 255 257 259 264 267 264 263 265 270 274 280 287 293 298 304 310 316 321 326 329 332 334 336 339 340 341 342 343 344 345 346 347 348 349 350 352 353 354 354 356 357 358 360 1 3 4 4 6 7 7 9 11 13 15 16 18 19 20
218 219 220 219 218 219 219 220 221 222 222 224 226 230 234 235 234 233 234 235 237 240 243 247 249 249 251 255 257 260 265 265 261 259 263 267 271 277 283 288 294 299 304 311 317 321 324 327 329 332 335 337 338 339 340 341 342 343 344 345 346 347 348 349 350 351 352 354 355 357 359 1 2 3 4 5 6 7 9 10 12 14 16 18 19
219 220 220 219 218 219 220 220 221 222 223 226 229 231 232 232 232 232 234 236 239 241 244 246 247 248 251 254 256 260 264 262 258 259 261 265 269 274 279 285 290 295 300 306 312 316 319 322 325 328 331 333 335 336 337 338 338 340 341 342 343 343 344 345 346 347 349 350 352 354 355 357 359 1 2 3 5 6 7 8 9 11 14 16 17
220 219 219 218 218 219 220 220 221 223 225 227 229 231 230 229 229 230 234 238 242 244 246 246 246 247 249 251 254 259 261 259 257 258 260 264 268 272 277 283 288 292 297 302 307 311 315 319 321 324 327 329 331 333 334 334 335 336 337 338 339 339 340 340 341 343 344 346 348 349 351 353 355 357 359 0 2 3 5 6 7 8 10 12 14
221 219 218 218 219 220 220 221 223 226 227 229 230 230 229 227 227 229 233 238 241 244 245 245 245 247 249 252 255 258 258 256 256 257 260 263 266 270 275 281 286 290 294 298 302 307 312 315 318 321 323 325 327 329 330 331 332 333 334 335 335 336 336 337 338 338 340 341 343 345 347 349 351 353 355 357 358 0 2 3 4 5 6 8 9
221 220 218 219 220 221 222 224 226 228 228 229 229 228 226 226 227 230 234 236 238 240 242 243 245 247 250 253 255 256 255 255 255 258 260 262 264 269 274 279 283 287 292 295 299 304 308 312 315 317 320 322 324 326 327 328 329 330 331 332 333 334 334 334 335 335 336 337 338 340 342 344 346 348 350 352 354 356 358 359 1 2 3 4 5
222 222 221 221 222 223 224 226 228 228 227 227 227 225 225 226 229 232 235 236 238 239 241 243 246 249 252 253 254 254 254 255 256 258 260 261 264 268 273 277 280 284 289 293 296 301 305 309 313 315 317 319 321 323 325 326 327 328 329 330 332 333 333 334 333 333 333 334 334 335 337 339 341 343 345 347 349 351 353 354 356 357 359 360 1
224 225 224 222 222 223 225 226 226 226 226 226 225 224 226 228 231 233 236 237 239 240 242 244 246 249 251 252 253 253 254 255 257 259 260 261 264 268 271 275 278 282 287 291 294 298 303 307 310 312 314 316 319 321 322 324 325 327 328 329 331 332 333 333 333 333 332 332 332 332 333 334 336 338 340 342 344 346 347 349 350 352 354 355 356
226 226 225 223 222 223 225 225 224 224 225 225 224 224 226 229 231 234 237 238 240 241 243 244 245 247 249 250 251 251 253 255 258 260 261 262 265 268 271 274 277 281 285 289 293 296 301 304 308 310 312 314 316 318 320 322 324 325 326 328 329 330 332 333 333 333 332 331 331 331 331 331 332 333 335 337 338 340 342 344 345 346 348 350 351
228 226 225 224 224 225 226 225 223 223 224 225 224 225 227 229 232 235 237 239 240 241 242 244 245 246 248 248 249 250 252 255 258 260 261 264 267 269 272 274 277 281 284 288 291 295 298 302 305 308 310 311 313 314 316 319 321 323 324 325 326 328 329 330 331 332 331 331 330 330 329 329 328 329 330 331 333 334 336 338 339 341 342 343 345
230 227 225 224 225 226 226 224 223 223 224 224 225 226 228 231 233 236 238 239 240 240 241 242 244 245 245 246 247 249 251 254 257 259 262 265 268 271 273 275 278 281 284 287 290 293 296 299 302 305 307 308 310 312 313 315 317 319 321 321 322 323 325 326 327 328 329 329 329 328 327 327 326 325 326 326 327 329 330 331 333 334 336 337 338
230 228 225 225 225 226 225 224 222 223 224 225 227 228 230 232 235 237 238 238 238 239 240 241 243 244 244 245 247 249 251 254 257 260 263 267 270 273 275 277 279 281 283 286 289 292 294 297 300 302 304 306 307 309 310 311 313 315 317 318 319 320 322 323 324 325 326 327 327 326 325 324 324 324 323 323 323 324 325 326 327 328 329 330 331
230 228 226 225 225 225 225 223 222 224 226 227 228 230 232 234 236 237 237 237 237 238 240 243 245 246 246 247 248 250 253 256 258 260 264 268 271 274 276 278 280 282 284 285 288 290 292 295 297 300 302 304 305 306 308 309 310 311 313 314 316 318 319 321 322 323 323 324 325 324 323 322 322 322 321 321 320 320 320 321 321 322 323 324 325
231 229 227 225 224 225 224 223 223 225 227 228 230 232 234 234 235 235 236 237 238 240 242 245 247 247 248 248 250 252 256 259 260 262 264 268 271 274 277 279 281 282 284 285 286 287 290 293 296 298 300 301 302 304 305 307 308 310 311 312 314 315 316 318 319 320 321 322 322 322 321 320 320 320 320 319 319 319 318 318 318 318 318 319 319
231 231 229 226 225 225 224 223 224 227 228 229 232 234 233 233 234 235 236 238 239 241 244 247 248 249 249 250 252 254 257 260 261 263 266 268 271 274 277 279 281 282 284 285 285 287 289 292 295 296 298 299 300 301 303 304 306 308 310 311 312 313 314 315 316 317 318 319 319 320 319 319 318 318 317 318 317 317 317 317 316 316 316 316 316
231 232 230 225 222 222 223 225 227 229 230 232 233 233 233 234 235 236 238 240 241 243 246 249 250 251 252 253 254 256 258 260 263 265 267 269 272 274 276 278 280 282 283 285 286 287 288 290 292 294 296 297 298 300 301 303 305 306 308 310 311 311 312 312 313 314 315 316 317 317 317 317 317 316 315 314 314 313 313 313 313 313 313 314 314
231 231 227 223 221 222 226 229 230 231 232 233 233 233 234 236 238 239 240 242 244 245 248 250 251 252 253 255 256 257 259 262 264 266 268 270 272 274 275 277 279 280 282 284 286 287 288 289 290 292 294 296 297 298 300 302 304 305 307 308 308 309 309 310 310 311 312 312 313 314 314 313 313 313 312 311 311 310 309 309 309 309 309 309 309
229 228 226 224 225 227 230 232 233 233 233 233 233 234 235 237 238 239 242 244 245 247 248 250 251 252 254 255 256 258 260 263 266 268 269 271 273 274 276 277 279 281 282 284 285 286 287 288 290 291 293 294 296 298 299 301 302 304 305 306 307 307 308 309 309 310 310 310 310 310 310 310 309 308 308 308 307 307 306 306 305 305 305 305 305
229 227 227 229 230 230 232 233 234 234 234 234 234 236 237 237 239 241 243 244 246 247 249 249 251 253 254 255 257 259 262 264 267 269 271 273 274 275 277 278 280 281 282 284 285 286 287 288 289 291 292 294 296 297 299 300 302 303 305 306 306 306 307 307 308 308 309 309 308 308 308 308 307 306 305 305 304 304 303 303 302 302 301 301 301
228 227 229 231 232 231 232 233 234 235 235 235 235 236 237 238 240 242 243 245 247 248 249 249 251 252 254 256 259 261 264 266 268 270 272 273 275 276 277 278 279 281 282 284 285 286 287 289 290 291 293 294 296 297 299 300 302 303 304 305 305 306 306 306 306 307 307 307 307 306 306 306 306 306 305 304 303 302 301 300 300 300 299 299 298
228 228 230 232 232 233 233 233 235 236 235 233 233 235 237 239 241 242 244 245 247 248 248 250 251 253 256 258 261 263 265 267 269 270 272 273 274 276 277 279 280 281 282 283 285 286 288 289 290 292 293 294 296 298 299 301 302 303 303 304 305 305 306 306 306 306 306 306 305 305 304 304 304 304 304 303 302 301 300 299 298 298 297 296 296
227 230 231 232 232 232 232 233 235 235 234 233 234 236 239 241 242 242 243 244 245 247 249 252 254 256 258 261 263 265 266 267 269 270 271 273 275 276 278 280 281 282 283 284 286 287 288 289 290 292 293 295 297 298 300 301 302 302 303 303 304 305 305 305 305 305 306 306 305 304 304 304 303 303 303 302 301 300 299 298 297 297 296 295 295